Boonville, MO

1:36 AM CST on February 22, 2018 (GMT -0600)
Viertel Memorial

Weather History for KVER - November, 2012

Change the Weather History Date:

Tuesday, November 27, 2012

  Actual Average Record
Temperature  
Mean Temperature 28 °F -  
Max Temperature 39 °F 49 °F 75 °F (1965)
Min Temperature 18 °F 30 °F 8 °F (1977)
Degree Days  
Heating Degree Days 36    
Moisture  
Dew Point 15 °F    
Average Humidity 61    
Maximum Humidity 83    
Minimum Humidity 35    
Precipitation  
Precipitation 0.00 in - - ()
Sea Level Pressure  
Sea Level Pressure 30.38 in    
Wind  
Wind Speed 3 mph (SW)    
Max Wind Speed 9 mph    
Max Gust Speed -    
Visibility 10 miles    
Events      
Averages and records for this station are not official NWS values.
T = Trace of Precipitation, MM = Missing Value Source: NWS Daily Summary

Daily Weather History Graph

Daily Weather History Graph

Search for Another Location

Airport or City:

Trip Planner

Search our weather history database for the weather conditions in past years. The results will help you decide how hot, cold, wet, or windy it might be!

Date:

Astronomy

Nov. 27, 2012 Rise Set
Actual Time 7:06 AM CST 4:49 PM CST
Civil Twilight 6:37 AM CST 5:19 PM CST
Nautical Twilight 6:04 AM CST 5:52 PM CST
Astronomical Twilight 5:32 AM CST 6:24 PM CST
Moon 4:21 PM CST (11/27) 6:12 AM CST (11/27)
Length of Visible Light 10h 41m
Length of Day
9h 42m
Waxing Gibbous, 99% of the Moon is Illuminated
Nov 27
Waxing Gibbous
Nov 28
Full
Dec 6
Last Quarter
Dec 13
New
Dec 19
First Quarter

Hourly Weather History & Observations

Time (CST) Temp. Windchill Dew Point Humidity Pressure Visibility Wind Dir Wind Speed Gust Speed Precip Events Conditions
12:15 AM 24.1 °F 17.0 °F 18.9 °F 80% 30.43 in 10.0 mi North 5.8 mph - N/A   Clear
12:35 AM 23.9 °F 15.8 °F 18.0 °F 78% 30.43 in 10.0 mi North 6.9 mph - N/A   Clear
12:55 AM 23.4 °F 15.2 °F 16.9 °F 76% 30.42 in 10.0 mi North 6.9 mph - N/A   Clear
1:15 AM 22.6 °F 15.3 °F 16.2 °F 76% 30.42 in 10.0 mi North 5.8 mph - N/A   Clear
1:35 AM 22.1 °F 14.7 °F 15.4 °F 76% 30.42 in 10.0 mi North 5.8 mph - N/A   Clear
1:55 AM 21.9 °F 15.7 °F 14.9 °F 74% 30.42 in 10.0 mi North 4.6 mph - N/A   Clear
2:15 AM 21.7 °F 15.5 °F 14.4 °F 73% 30.42 in 10.0 mi North 4.6 mph - N/A   Clear
2:35 AM 21.7 °F 17.0 °F 14.2 °F 73% 30.42 in 10.0 mi NNW 3.5 mph - N/A   Clear
2:55 AM 21.7 °F 17.0 °F 14.0 °F 72% 30.42 in 10.0 mi NNW 3.5 mph - N/A   Clear
3:15 AM 21.7 °F - 13.8 °F 72% 30.42 in 10.0 mi Calm Calm - N/A   Clear
3:35 AM 21.9 °F - 13.8 °F 71% 30.42 in 10.0 mi Calm Calm - N/A   Clear
3:55 AM 20.8 °F - 14.2 °F 75% 30.42 in 10.0 mi Calm Calm - N/A   Clear
4:15 AM 20.1 °F 15.2 °F 14.5 °F 79% 30.42 in 10.0 mi NNW 3.5 mph - N/A   Clear
4:35 AM 20.1 °F 15.2 °F 14.4 °F 78% 30.42 in 10.0 mi NNW 3.5 mph - N/A   Clear
4:55 AM 19.8 °F 13.2 °F 13.8 °F 78% 30.43 in 10.0 mi North 4.6 mph - N/A   Clear
5:35 AM 19.0 °F 13.9 °F 14.0 °F 81% 30.43 in 10.0 mi NNW 3.5 mph - N/A   Clear
5:55 AM 19.0 °F - 14.2 °F 81% 30.43 in 10.0 mi Calm Calm - N/A   Clear
6:15 AM 18.9 °F - 13.8 °F 81% 30.43 in 10.0 mi Calm Calm - N/A   Clear
6:35 AM 18.0 °F - 13.1 °F 81% 30.44 in 10.0 mi Calm Calm - N/A   Clear
6:55 AM 18.1 °F - 13.5 °F 82% 30.44 in 10.0 mi Calm Calm - N/A   Clear
7:15 AM 18.1 °F - 13.6 °F 83% 30.44 in 10.0 mi Calm Calm - N/A   Clear
7:35 AM 18.7 °F 13.5 °F 13.8 °F 81% 30.44 in 10.0 mi North 3.5 mph - N/A   Clear
7:55 AM 19.2 °F 14.1 °F 13.6 °F 79% 30.44 in 10.0 mi North 3.5 mph - N/A   Clear
8:15 AM 20.7 °F 15.8 °F 14.4 °F 77% 30.46 in 10.0 mi North 3.5 mph - N/A   Clear
8:35 AM 21.9 °F 17.2 °F 13.5 °F 70% 30.47 in 10.0 mi North 3.5 mph - N/A   Clear
8:55 AM 23.2 °F - 13.3 °F 66% 30.47 in 10.0 mi Calm Calm - N/A   Clear
9:15 AM 24.1 °F - 13.6 °F 64% 30.47 in 10.0 mi Calm Calm - N/A   Clear
9:55 AM 26.6 °F - 14.7 °F 61% 30.48 in 10.0 mi Calm Calm - N/A   Clear
10:15 AM 27.5 °F - 15.8 °F 61% 30.48 in 10.0 mi Calm Calm - N/A   Clear
10:35 AM 28.0 °F - 15.1 °F 58% 30.47 in 10.0 mi Calm Calm - N/A   Clear
10:55 AM 29.5 °F 25.9 °F 15.4 °F 56% 30.45 in 10.0 mi South 3.5 mph - N/A   Clear
11:15 AM 31.1 °F 25.4 °F 16.2 °F 54% 30.43 in 10.0 mi South 5.8 mph - N/A   Clear
11:35 AM 32.2 °F 27.7 °F 15.6 °F 51% 30.42 in 10.0 mi South 4.6 mph - N/A   Clear
11:55 AM 33.1 °F 28.7 °F 16.0 °F 50% 30.41 in 10.0 mi SSE 4.6 mph - N/A   Clear
12:15 PM 34.0 °F 28.8 °F 15.4 °F 47% 30.40 in 10.0 mi South 5.8 mph - N/A   Clear
12:35 PM 34.5 °F - 15.1 °F 45% 30.39 in 10.0 mi Calm Calm - N/A   Clear
1:15 PM 36.7 °F 32.9 °F 13.8 °F 39% 30.36 in 10.0 mi SSE 4.6 mph - N/A   Clear
1:35 PM 37.2 °F 32.6 °F 14.4 °F 39% 30.35 in 10.0 mi SSW 5.8 mph - N/A   Clear
1:55 PM 38.1 °F 35.7 °F 14.0 °F 37% 30.34 in 10.0 mi SW 3.5 mph - N/A   Clear
2:15 PM 38.5 °F 34.1 °F 14.4 °F 37% 30.34 in 10.0 mi SSW 5.8 mph - N/A   Clear
2:35 PM 39.0 °F 34.8 °F 14.0 °F 36% 30.33 in 10.0 mi SSE 5.8 mph - N/A   Clear
2:55 PM 39.6 °F 36.3 °F 14.2 °F 36% 30.32 in 10.0 mi SSW 4.6 mph - N/A   Clear
3:15 PM 39.7 °F 33.7 °F 14.2 °F 35% 30.32 in 10.0 mi South 9.2 mph - N/A   Clear
3:35 PM 39.6 °F 35.4 °F 14.2 °F 36% 30.32 in 10.0 mi South 5.8 mph - N/A   Clear
3:55 PM 39.4 °F 35.2 °F 14.7 °F 37% 30.31 in 10.0 mi South 5.8 mph - N/A   Clear
4:15 PM 38.8 °F 33.8 °F 15.4 °F 39% 30.30 in 10.0 mi SSE 6.9 mph - N/A   Clear
4:55 PM 35.4 °F 32.6 °F 17.4 °F 48% 30.30 in 10.0 mi South 3.5 mph - N/A   Clear
5:15 PM 34.3 °F - 17.2 °F 50% 30.30 in 10.0 mi Calm Calm - N/A   Clear
5:35 PM 34.9 °F - 16.2 °F 46% 30.30 in 10.0 mi Calm Calm - N/A   Clear
5:55 PM 34.7 °F - 15.8 °F 46% 30.30 in 10.0 mi Calm Calm - N/A   Clear
6:15 PM 33.8 °F - 15.8 °F 48% 30.30 in 10.0 mi Calm Calm - N/A   Clear
6:35 PM 32.7 °F - 15.6 °F 49% 30.29 in 10.0 mi Calm Calm - N/A   Clear
6:55 PM 33.1 °F - 15.3 °F 48% 30.30 in 10.0 mi Calm Calm - N/A   Clear
7:35 PM 32.5 °F - 15.3 °F 49% 30.31 in 10.0 mi Calm Calm - N/A   Clear
7:55 PM 32.4 °F 29.1 °F 15.3 °F 49% 30.31 in 10.0 mi SSE 3.5 mph - N/A   Clear
8:15 PM 31.1 °F - 15.8 °F 53% 30.32 in 10.0 mi Calm Calm - N/A   Clear
8:55 PM 30.6 °F - 15.3 °F 53% 30.33 in 10.0 mi Calm Calm - N/A   Clear
9:15 PM 29.5 °F - 15.6 °F 56% 30.33 in 10.0 mi Calm Calm - N/A   Clear
9:35 PM 28.8 °F 25.0 °F 15.6 °F 58% 30.33 in 10.0 mi SSE 3.5 mph - N/A   Clear
9:55 PM 28.0 °F - 16.3 °F 62% 30.33 in 10.0 mi Calm Calm - N/A   Clear
10:15 PM 26.8 °F - 16.9 °F 66% 30.33 in 10.0 mi Calm Calm - N/A   Clear
10:35 PM 25.9 °F - 17.2 °F 70% 30.33 in 10.0 mi Calm Calm - N/A   Clear
10:55 PM 25.7 °F 21.5 °F 17.6 °F 71% 30.32 in 10.0 mi South 3.5 mph - N/A   Clear
11:15 PM 25.5 °F - 18.0 °F 73% 30.33 in 10.0 mi Calm Calm - N/A   Clear
11:35 PM 25.7 °F - 18.5 °F 74% 30.34 in 10.0 mi Calm Calm - N/A   Clear
11:55 PM 26.2 °F - 18.5 °F 73% 30.34 in 10.0 mi Calm Calm - N/A   Clear